GW2867 Weather Reports


time (UTC)temp
F
wind
direction
speed
knots
gust
knots
rain 1hr
in
rain 24hr
in
rain mn
in
humidity
%
barometer
mb
20260504160204 65 284 3.5 7.8 0.00 0.00 0.00 39 1007.2
20260504150704 63 202 3.5 8.7 0.00 0.00 0.00 42 1007.9
20260504150203 62 280 4.3 7.8 0.00 0.00 0.00 42 1008.0
20260504140704 59 330 4.3 11.3 0.00 0.00 0.00 46 1008.3
20260504130704 56 281 2.6 7.0 0.00 0.00 0.00 53 1008.6
20260504130203 55 318 1.7 6.1 0.00 0.00 0.00 55 1008.6
20260504120204 46 47 0.0 6.1 0.00 0.00 0.00 81 1009.1
20260504110703 40 347 0.0 0.0 0.00 0.00 0.00 86 1009.5
20260504110204 40 347 0.0 0.0 0.00 0.00 0.00 86 1009.5
20260504100204 40 32 0.0 0.0 0.00 0.00 0.00 84 1009.4
20260504081703 42 32 0.0 0.9 0.00 0.00 0.00 81 1009.4
20260504081204 42 0 0.0 0.0 0.00 0.00 0.00 81 1009.3
20260504080703 42 0 0.0 0.0 0.00 0.00 0.00 81 1009.4
20260504080204 42 0 0.0 0.0 0.00 0.00 0.00 80 1009.3
20260504070204 43 0 0.0 0.0 0.00 0.00 0.00 79 1009.3
20260504060203 43 0 0.0 0.0 0.00 0.00 0.00 78 1009.4
20260504050703 41 5 1.7 1.7 0.00 0.00 0.00 78 1009.7
20260504050203 42 14 0.0 0.0 0.00 0.00 0.00 78 1009.6
20260504045704 42 12 0.9 1.7 0.00 0.00 0.00 78 1009.6
20260504045203 42 11 0.0 0.9 0.00 0.00 0.00 78 1009.7
20260504044705 42 12 0.9 1.7 0.00 0.00 0.00 77 1009.7
20260504044204 42 8 1.7 1.7 0.00 0.00 0.00 77 1009.7
20260504043703 42 350 1.7 1.7 0.00 0.00 0.00 76 1009.6
20260504043204 42 7 1.7 1.7 0.00 0.00 0.00 76 1009.7
20260504042703 42 7 1.7 1.7 0.00 0.00 0.00 75 1009.6
20260504042204 42 4 1.7 1.7 0.00 0.00 0.00 75 1009.6
20260504041703 43 9 2.6 2.6 0.00 0.00 0.00 74 1009.6
20260504041204 43 6 1.7 2.6 0.00 0.00 0.00 74 1009.6
20260504040704 43 4 1.7 2.6 0.00 0.00 0.00 74 1009.6
20260504040204 44 7 1.7 1.7 0.00 0.00 0.00 73 1009.5
20260504035703 43 5 0.9 2.6 0.00 0.00 0.00 72 1009.5
20260504035203 44 12 1.7 1.7 0.00 0.00 0.00 72 1009.5
20260504034704 44 8 1.7 1.7 0.00 0.00 0.00 71 1009.5
20260504034203 44 14 1.7 1.7 0.00 0.00 0.00 70 1009.5
20260504033704 44 4 1.7 1.7 0.00 0.00 0.00 70 1009.4
20260504033204 45 10 0.9 1.7 0.00 0.00 0.00 70 1009.3
20260504032703 45 5 1.7 1.7 0.00 0.00 0.00 69 1009.2
20260504032204 45 0 0.0 1.7 0.00 0.00 0.00 68 1009.2
20260504031703 45 322 0.0 0.0 0.00 0.00 0.00 68 1009.2
20260504031204 46 322 0.0 0.0 0.00 0.00 0.00 68 1009.1
20260504030704 46 322 0.0 0.0 0.00 0.00 0.00 68 1009.1
20260504030204 46 322 0.0 0.0 0.00 0.00 0.00 68 1009.1
20260504025703 47 322 0.0 0.0 0.00 0.00 0.00 68 1009.0
20260504025203 47 322 0.0 0.0 0.00 0.00 0.00 68 1009.0
20260504024704 47 322 0.0 0.0 0.00 0.00 0.00 68 1009.0
20260504023704 47 322 0.0 0.0 0.00 0.00 0.00 66 1009.1
20260504023203 48 322 0.0 0.0 0.00 0.00 0.00 65 1009.0
20260504022703 48 322 0.0 0.0 0.00 0.00 0.00 64 1009.0
20260504022204 48 322 0.0 0.0 0.00 0.00 0.00 61 1009.0
20260504021203 48 322 0.0 0.9 0.00 0.00 0.00 60 1008.9
20260504020704 49 11 0.0 0.9 0.00 0.00 0.00 58 1008.8
20260504015203 49 5 0.9 1.7 0.00 0.00 0.00 58 1008.7
20260504014703 50 133 0.0 0.9 0.00 0.00 0.00 56 1008.6
20260504014204 50 337 0.0 1.7 0.00 0.00 0.00 54 1008.5
20260504013703 50 340 0.9 2.6 0.00 0.00 0.00 54 1008.5
20260504013204 50 23 0.9 5.2 0.00 0.00 0.00 52 1008.5
20260504012704 49 334 2.6 5.2 0.00 0.00 0.00 52 1008.4
20260504011704 49 355 1.7 4.3 0.00 0.00 0.00 54 1008.4
20260504010704 49 330 0.9 1.7 0.00 0.00 0.00 56 1008.2
20260504010203 49 353 5.2 12.2 0.00 0.00 0.00 55 1008.2
20260504005704 49 306 0.0 0.0 0.00 0.00 0.00 55 1008.1
20260504005204 50 320 0.9 1.7 0.00 0.00 0.00 54 1008.1
20260504004203 50 287 0.0 0.0 0.00 0.00 0.00 51 1007.9
20260504003703 51 287 0.0 0.0 0.00 0.00 0.00 51 1007.8
20260504003203 51 287 0.0 0.0 0.00 0.00 0.00 50 1007.7
20260504002704 51 287 0.0 0.0 0.00 0.00 0.00 50 1007.6
20260504002203 52 287 0.0 0.0 0.00 0.00 0.00 48 1007.5
20260504001704 52 287 0.0 0.0 0.00 0.00 0.00 48 1007.5
20260504001204 52 287 0.0 1.7 0.00 0.00 0.00 47 1007.4
20260504000204 53 354 0.9 4.3 0.00 0.00 0.00 43 1007.3
20260503235204 53 335 0.0 0.0 0.00 0.00 0.00 43 1007.2
20260503234704 53 335 0.0 0.9 0.00 0.00 0.00 41 1007.2
20260503233704 54 332 0.9 2.6 0.00 0.00 0.00 38 1007.1
20260503233203 54 19 1.7 7.8 0.00 0.00 0.00 37 1007.1
20260503232704 54 339 1.7 4.3 0.00 0.00 0.00 37 1007.1
20260503231704 54 24 1.7 4.3 0.00 0.00 0.00 40 1007.0
20260503230703 55 26 2.6 5.2 0.00 0.00 0.00 38 1007.0
20260503230204 55 6 1.7 4.3 0.00 0.00 0.00 38 1007.0
20260503225704 55 342 2.6 6.1 0.00 0.00 0.00 38 1007.0
20260503225204 55 316 1.7 6.1 0.00 0.00 0.00 38 1006.9
20260503224703 55 15 5.2 7.8 0.00 0.00 0.00 36 1006.8
20260503224203 56 356 4.3 8.7 0.00 0.00 0.00 36 1006.8
20260503223704 57 7 2.6 6.1 0.00 0.00 0.00 36 1006.8
20260503223204 57 0 2.6 7.8 0.00 0.00 0.00 36 1006.8
20260503222203 57 39 2.6 7.8 0.00 0.00 0.00 37 1006.9
20260503221704 57 18 2.6 6.1 0.00 0.00 0.00 38 1006.9
20260503221204 57 295 3.5 7.8 0.00 0.00 0.00 37 1006.9
20260503220704 57 32 0.0 2.6 0.00 0.00 0.00 40 1006.9
20260503220204 56 36 2.6 6.1 0.00 0.00 0.00 37 1006.8
20260503215704 56 49 0.9 7.0 0.00 0.00 0.00 38 1006.9
20260503215204 56 333 4.3 7.8 0.00 0.00 0.00 37 1006.9
20260503214704 56 15 4.3 11.3 0.00 0.00 0.00 38 1006.9
20260503214203 55 17 4.3 10.4 0.00 0.00 0.00 38 1007.0
20260503213205 56 12 7.8 17.4 0.00 0.00 0.00 37 1006.8
20260503212703 56 350 3.5 10.4 0.00 0.00 0.00 39 1006.9
20260503212204 55 350 4.3 13.0 0.00 0.00 0.00 39 1006.9
20260503211704 55 12 3.5 8.7 0.00 0.00 0.00 39 1006.9
20260503211204 55 14 4.3 12.2 0.00 0.00 0.00 41 1006.7
20260503210703 56 16 5.2 13.0 0.00 0.00 0.00 39 1006.9
20260503210203 56 14 5.2 11.3 0.00 0.00 0.00 39 1006.7
20260503205704 56 343 6.1 11.3 0.00 0.00 0.00 39 1006.8
20260503205203 57 18 6.1 12.2 0.00 0.00 0.00 38 1006.7
20260503204704 57 1 7.8 17.4 0.00 0.00 0.00 36 1006.7
20260503204203 58 16 4.3 13.0 0.00 0.00 0.00 38 1006.7
20260503203203 59 333 4.3 12.2 0.00 0.00 0.00 37 1006.9
20260503202704 59 1 5.2 13.0 0.00 0.00 0.00 35 1006.8
20260503202203 60 357 3.5 12.2 0.00 0.00 0.00 35 1006.7
20260503201704 59 342 2.6 7.0 0.00 0.00 0.00 39 1006.6
20260503201204 57 322 1.7 15.6 0.00 0.00 0.00 40 1006.7
20260503200703 56 12 5.2 13.0 0.00 0.00 0.00 39 1006.7
20260503200204 55 335 5.2 10.4 0.00 0.00 0.00 40 1006.7
20260503195204 54 331 6.1 12.2 0.00 0.00 0.00 41 1006.8
20260503194703 54 2 6.1 13.9 0.00 0.00 0.00 40 1006.9
20260503194204 54 2 6.1 14.8 0.00 0.00 0.00 40 1006.9
20260503193704 55 26 7.8 14.8 0.00 0.00 0.00 39 1006.7
20260503193203 54 7 4.3 12.2 0.00 0.00 0.00 39 1006.8
20260503192704 54 23 2.6 7.8 0.00 0.00 0.00 41 1006.8
20260503192203 54 6 6.1 12.2 0.00 0.00 0.00 40 1006.8
20260503191704 53 342 3.5 13.9 0.00 0.00 0.00 42 1006.8
20260503191203 53 10 6.1 13.0 0.00 0.00 0.00 40 1006.8
20260503190704 54 23 2.6 10.4 0.00 0.00 0.00 43 1006.8
20260503190203 54 10 2.6 13.9 0.00 0.00 0.00 43 1006.8
20260503185704 54 356 3.5 7.8 0.00 0.00 0.00 43 1006.8
20260503185204 53 2 3.5 14.8 0.00 0.00 0.00 42 1006.8
20260503184704 53 14 4.3 11.3 0.00 0.00 0.00 43 1006.8
20260503184204 53 327 5.2 11.3 0.00 0.00 0.00 41 1006.8
20260503183704 54 328 4.3 12.2 0.00 0.00 0.00 43 1006.9
20260503183204 54 3 4.3 11.3 0.00 0.00 0.00 42 1006.7
20260503182704 54 14 5.2 10.4 0.00 0.00 0.00 42 1006.7
20260503182204 54 31 3.5 8.7 0.00 0.00 0.00 42 1006.8
20260503181704 53 355 4.3 7.8 0.00 0.00 0.00 43 1006.8
20260503180704 53 334 6.1 14.8 0.00 0.00 0.00 43 1006.7
20260503175203 52 321 4.3 8.7 0.00 0.00 0.00 45 1007.0
20260503174704 52 326 4.3 8.7 0.00 0.00 0.00 47 1006.9
20260503174204 52 5 5.2 15.6 0.00 0.00 0.00 47 1007.0
20260503173703 53 29 6.1 11.3 0.00 0.00 0.00 45 1006.8
20260503173204 53 3 2.6 7.0 0.00 0.00 0.00 47 1007.0
20260503172703 53 6 5.2 17.4 0.00 0.00 0.00 46 1007.0
20260503171703 53 316 4.3 11.3 0.00 0.00 0.00 47 1007.0
20260503171203 53 327 6.1 8.7 0.00 0.00 0.00 46 1006.9
20260503170704 53 13 7.0 14.8 0.00 0.00 0.00 44 1006.8
20260503170204 54 356 5.2 13.0 0.00 0.00 0.00 42 1006.9